Situs Daftar Bandar Dewa Poker 88 Domino Qiu Qiu Ceme Online Asia

Jackpot

Texas Poker Multi Jackpot System

Kini Telah hadir Jackpot SUPER ROYAL FLUSH

Kini Telah hadir Jackpot 2000 (khusus table VIP keatas).

Ikutilah global jackpot yang tersedia di system kami, dengan system jackpot terbaru dan pertama di indonesia, anda dapat membeli jackpot dengan harga 100 rupiah saja dan menangkan hadiahnya hingga puluhan juta rupiah.

Jackpot bukanlah suatu keharusan untuk dibeli, namun kami memberikan suatu fitur tambahan untuk member tercinta dari www.emoqq.net.

Terdapat tiga pilihan harga jackpot yang bisa anda beli yaitu :100,500,1000 dan 2000(khusus table VIP Keatas) rupiah.

Hadiah dari Multi jackpot system www.emoqq.net

  1. full house x 10 harga jackpot yang anda beli.
      (contoh:anda membeli 1000 maka:1000 X10 = 10.000)
  2. four of kind x 250 harga jackpot yang anda beli
      (contoh:anda membeli 1000 maka:1000 X250 = 250.000)
  3. Straight flush x 1200
      (contoh:anda membeli 1000 maka:1000 X1200 = 1.200.000)
  4. Royal flush x 10000 harga jackpot yang anda beli
      (contoh:anda membeli 1000 maka:1000 X10000 = 10.000.000)
  5. SUPER ROYAL FLUSH x 30000 harga jackpot yang anda beli
      (contoh:anda membeli 1000 maka:1000 X30000 = 30.000.000)

Kondisi kartu

  1. full house adalah kondisi kartu dimana kartu anda dan kartu tengah dengan total 7 kartu bisa mendapatkan nilai 5 kartu dengan kombinasi 1 tris(three of kind) dan 1 pair, contoh 3 kartu 10 dan 2 kartu 5
  2. Four of kind adalah kondisi kartu dimana kartu anda dan kartu tengah dengan total 7 kartu bisa mendapatkan nilai 5 kartu dengan kombinasi 4 kartu yang sama jumlah dan 1 kartu apapun juga contoh anda mendapatkan 4 buah kartu angka 3 dan 1 kartu apapun.
  3. Staright flush adalah kondisi kartu dimana kartu anda dan kartu tengah dengan total 7 kartu bisa mendapatkan nilai 5 kartu dengan kombinasi seri / staright dengan kembang yang sama contoh : urutan kartu dari angka 5, 6, 7, 8 , 9 10 dengan kembang yg sama misalnya as hati
  4. Royal flush adalah kondisi kartu dimana kartu anda dan kartu tengah dengan total 7 kartu bisa mendapatkan nilai 5 kartu dengan kombinasi seri / staright dengan kembang yang sama tetapi kartu tersebut haruslah dimulai dari 10. contoh 10, Queen, Jack, King dan aces dengan kembang yang sama
  5. Super Royal flush adalah kondisi kartu dimana Kedua kartu anda digabung dengan 3 kartu pertama meja haruslah royal flush. contoh kartu anda 10,Queen kembang sama dan 3 kartu pertama meja adalah Jack, King dan aces dengan kembang yang sama

Demikian adalah penjelasan dari Multi Jackpot www.emoqq.net terima kasih dan selamat bermain salam hoki dari kami

Texas Poker Jackpot Winner

TOP SUPER ROYAL FLUSH
No.TanggalNamaPriceWin
121/06 08:23TLJ18Super Royal flush6,000,000
221/06 04:23PASAUSuper Royal flush60,000,000
321/06 03:44POKER393OKSuper Royal flush3,000,000
421/06 02:17SEMOGAHQ11Super Royal flush6,000,000
520/06 20:53SIGIT822Super Royal flush30,000,000
TOP ROYAL FLUSH
No.TanggalNamaPriceWin
121/06 12:52NOKZA18Royal flush2,000,000
221/06 12:47OCUY848Royal flush500,000
321/06 12:45MURAKZ44JPRoyal flush2,000,000
421/06 12:41BOSKECIK91Royal flush2,000,000
521/06 12:26BOTHERoyal flush5,000,000
TOP STRAIGHT FLUSH
No.TanggalNamaPriceWin
121/06 13:08CUMAQQStraight Flush120,000
221/06 13:06MRHOKI74Straight Flush600,000
321/06 13:06JUHA999Straight Flush600,000
421/06 13:04S1RFAU24Straight Flush240,000
521/06 13:01LB993714Straight Flush1,200,000
LATEST JACKPOT
No.TanggalNamaPriceWin
121/06 13:08REMI1995Full House2,000
221/06 13:08PATATMU77Full House5,000
321/06 13:08DEDESUN99Full House5,000
421/06 13:08MUNAKGBL87Full House2,000
521/06 13:08CATS2018Full House1,000
621/06 13:08BOYA_HOKI_Full House1,000
721/06 13:08TEMPE444Four Of A Kind25,000
821/06 13:08JWXIY8SVGCFull House2,000
921/06 13:08ENDO2AAAFull House2,000
1021/06 13:08BESAR606Full House10,000
1121/06 13:08EBAPAFull House1,000
1221/06 13:08GARLIANY56Full House5,000
1321/06 13:08THEPOMPSFull House5,000
1421/06 13:08MUEZZHAFull House2,000
1521/06 13:08BI941QAVL5Full House5,000
1621/06 13:08AMDELOV3Full House5,000
1721/06 13:08E62F7920Full House5,000
1821/06 13:08APOWWWFull House20,000
1921/06 13:08CAIMEOGIFull House20,000
2021/06 13:08D0F35B61Full House2,000
2121/06 13:08QINK777Full House1,000
2221/06 13:08WAGEQQFull House1,000
2321/06 13:08EDS366Full House2,000
2421/06 13:08BEATCBSFull House1,000
2521/06 13:08JAYA368Full House500
2621/06 13:08SI_MBOFull House10,000
2721/06 13:08BOTAK_TAKFull House1,000
2821/06 13:08AP430XONAHFull House5,000
2921/06 13:08AYAHAPINFull House10,000
3021/06 13:08JOKIKASURFull House2,000
3121/06 13:08ALDEBARON2Full House2,000
3221/06 13:08CUMAQQStraight Flush120,000
3321/06 13:08AAN_86Full House5,000
3421/06 13:08KAPRON23Full House1,000
3521/06 13:08MBAHMACHOFull House10,000
3621/06 13:08T4DQUIKFull House1,000
3721/06 13:08SUS4N008Full House10,000
3821/06 13:08HAJISAMBASFull House10,000
3921/06 13:08LAKSIS99Full House2,000
4021/06 13:08BRUTALLYFull House1,000
4121/06 13:08CKLENZFull House10,000
4221/06 13:08GALANG2002Full House2,000
4321/06 13:07COMCROFull House2,000
4421/06 13:07TEHIROHFull House2,000
4521/06 13:07TER29Full House5,000
4621/06 13:07BOTE0782Full House5,000
4721/06 13:07SIMAT76Full House5,000
4821/06 13:07N1S48888Full House5,000
4921/06 13:07KUSESER12Full House10,000
5021/06 13:07J6CKT9SYTRFull House5,000

Domino Multi Jackpot System

Ikutilah global jackpot yang tersedia di system kami, dengan system jackpot terbaru dan pertama di indonesia, anda dapat membeli jackpot dengan harga 100 rupiah saja dan menangkan hadiahnya hingga puluhan juta rupiah.

Jackpot bukanlah suatu keharusan untuk dibeli, namun kami memberikan suatu fitur tambahan untuk member tercinta dari www.emoqq.net.

Terdapat tiga pilihan harga jackpot yang bisa anda beli yaitu :100,500 dan 1000 rupiah.

Hadiah dari Multi jackpot system www.emoqq.net

  1. Murni Kecil x 50 harga jackpot yang anda beli.
      (contoh:anda membeli 1000 maka:1000 X 50 = 50.000)
  2. Murni Besar x 50 harga jackpot yang anda beli
      (contoh:anda membeli 1000 maka:1000 X 50 = 50.000)
  3. BALAK x 100 harga jackpot yang anda beli
      (contoh:anda membeli 1000 maka:1000 X 100 = 100.000)
  4. ENAM DEWA x 6666 harga jackpot yang anda beli
      (contoh:anda membeli 1000 maka:1000 X 6666 = 6.666.000)

Demikian adalah penjelasan dari Multi Jackpot www.emoqq.net terima kasih dan selamat bermain salam hoki dari kami

Domino Jackpot Winner

TOP ENAM DEWA
No.TanggalNamaPriceWin
121/06 12:22H417CURmurni enam6,666,000
221/06 09:54JHONO250murni enam6,666,000
321/06 08:03A8981B9Emurni enam3,333,000
421/06 03:56LUKI378murni enam3,333,000
521/06 03:37T4D0015777murni enam666,600
TOP BALAK
No.TanggalNamaPriceWin
121/06 13:07BOIKOT71balak10,000
221/06 13:06JUN1297balak50,000
321/06 13:02WENTIR4_09balak10,000
421/06 13:00DEARLY29MObalak50,000
521/06 12:56D3NBAGUS99balak100,000
LATEST JACKPOT
No.TanggalNamaPriceWin
121/06 13:08LOBET6666murni besar50,000
221/06 13:08KIRIPIK99murni kecil50,000
321/06 13:08TUBURlucky992,500
421/06 13:07BOIKOT71balak10,000
521/06 13:07MUHAMAD89murni besar5,000
621/06 13:07FAIZIN9murni kecil5,000
721/06 13:06SEKSIQQmurni besar50,000
821/06 13:06JUN1297balak50,000
921/06 13:05SERSImurni besar50,000
1021/06 13:05SUKAKQQmurni besar50,000
1121/06 13:04IGU15murni kecil50,000
1221/06 13:04RIOBANElucky992,500
1321/06 13:04MV479318murni kecil25,000
1421/06 13:03HAMPURA11murni besar25,000
1521/06 13:02WENTIR4_09balak10,000
1621/06 13:02D1038AEQmurni kecil50,000
1721/06 13:02JPMX76murni kecil50,000
1821/06 13:01QCPUX83AIZmurni besar25,000
1921/06 13:01QUINTT666murni besar50,000
2021/06 13:01H63murni besar50,000
2121/06 13:01LB99220murni kecil25,000
2221/06 13:00BEILYBAGUSlucky992,500
2321/06 13:00TOCO19lucky9950,000
2421/06 13:00SUKAKQQmurni kecil50,000
2521/06 13:00TOCO19murni kecil50,000
2621/06 13:00DEARLY29MObalak50,000
2721/06 13:00D3NBAGUS99murni kecil50,000
2821/06 13:00AYIK89murni besar50,000
2921/06 12:59WARS18murni kecil5,000
3021/06 12:58HOKIAK02murni besar5,000
3121/06 12:58WONGLALI79murni kecil5,000
3221/06 12:57HIDAOT1KMDmurni besar25,000
3321/06 12:57MAMAN0909murni kecil50,000
3421/06 12:57MINKU999murni kecil50,000
3521/06 12:57SUKAKQQmurni kecil50,000
3621/06 12:57BOGER27murni besar50,000
3721/06 12:56IYAN996murni besar25,000
3821/06 12:56D3NBAGUS99balak100,000
3921/06 12:56GARASIN3Tmurni besar50,000
4021/06 12:56KALANGAN12murni besar5,000
4121/06 12:56DWBTOK293murni besar5,000
4221/06 12:56GONDOELZmurni besar25,000
4321/06 12:56UPIECmurni kecil5,000
4421/06 12:55BARY07murni besar50,000
4521/06 12:53LOTTO21murni kecil25,000
4621/06 12:52INKHE08murni kecil50,000
4721/06 12:52FULLGHOSHbalak50,000
4821/06 12:52YANGTON77balak50,000
4921/06 12:51TETEW_murni kecil5,000
5021/06 12:51HEMZZZZZmurni kecil5,000

Ceme Multi Jackpot System

Jackpot dilihat dari gabungan kartu pemain dengan kartu bandar. Bandar harus membeli jackpot sebanyak jumlah player yang sedang duduk. Sebagai contoh bila terdapat 3 pemain duduk bermain, dan bandar memutuskan untuk membeli jackpot Rp 1.000, maka pada periode tersebut bandar akan membeli jackpot sebanyak 3xRp1.000 = Rp3.000.

Jackpot bukanlah suatu keharusan untuk dibeli, namun kami memberikan suatu fitur tambahan untuk member tercinta dari www.emoqq.net.

Terdapat tiga pilihan harga jackpot yang bisa anda beli yaitu :100,500 dan 1000 rupiah.

Hadiah dari Multi jackpot system www.emoqq.net

  1. Murni Kecil x 50 harga jackpot yang anda beli.
      (contoh:anda membeli 1000 maka:1000 X 50 = 50.000)
  2. Murni Besar x 50 harga jackpot yang anda beli
      (contoh:anda membeli 1000 maka:1000 X 50 = 50.000)
  3. BALAK x 200 harga jackpot yang anda beli
      (contoh:anda membeli 1000 maka:1000 X 200 = 200.000)
  4. ENAM DEWA x 6666 harga jackpot yang anda beli
      (contoh:anda membeli 1000 maka:1000 X 6666 = 6.666.000)

Demikian adalah penjelasan dari Multi Jackpot www.emoqq.net terima kasih dan selamat bermain salam hoki dari kami

Ceme Jackpot Winner

TOP ENAM DEWA
No.TanggalNamaPriceWin
121/06 13:02TEGA09murni enam6,666,000
221/06 12:49NOPPRI83murni enam6,666,000
321/06 12:48IDNGAHER89murni enam666,600
421/06 12:44MONOCITRAmurni enam666,600
521/06 12:41RYANP2311murni enam6,666,000
TOP BALAK
No.TanggalNamaPriceWin
121/06 13:08ROYALNDOLbalak100,000
221/06 13:07GANASS91balak100,000
321/06 13:07DAV9999balak200,000
421/06 13:07N6450_N3Tbalak200,000
521/06 13:07E3SJVSKVYXbalak20,000
LATEST JACKPOT
No.TanggalNamaPriceWin
121/06 13:08DONK220476murni kecil5,000
221/06 13:08KAKAXX55murni besar5,000
321/06 13:08ROYALNDOLmurni besar25,000
421/06 13:08TNYABANDARmurni besar5,000
521/06 13:08ROYALNDOLbalak100,000
621/06 13:08IBIANGKEROmurni besar5,000
721/06 13:08CONK899murni kecil25,000
821/06 13:08SITISAN09murni kecil50,000
921/06 13:08DWBT12595murni kecil50,000
1021/06 13:08IDK897157murni besar50,000
1121/06 13:08HAMI1212murni besar50,000
1221/06 13:08TOLENS68murni besar50,000
1321/06 13:08SHIJHONmurni kecil50,000
1421/06 13:08D4C6574Amurni kecil50,000
1521/06 13:08BJR0503murni kecil50,000
1621/06 13:08L37SHAJ3CYmurni besar50,000
1721/06 13:07BLABUKFCmurni kecil5,000
1821/06 13:07DONIFSmurni besar50,000
1921/06 13:07EDY369murni besar5,000
2021/06 13:07GANASS91balak100,000
2121/06 13:07DAV9999balak200,000
2221/06 13:07GEMBEL1108murni kecil5,000
2321/06 13:07N6450_N3Tbalak200,000
2421/06 13:07E3SJVSKVYXbalak20,000
2521/06 13:07B61EDO862murni besar5,000
2621/06 13:07CHESBELmurni kecil50,000
2721/06 13:07MARKULEmurni kecil50,000
2821/06 13:07WT6DZYXQ2Omurni kecil5,000
2921/06 13:07O8Y9Z8FY8Lmurni kecil50,000
3021/06 13:07GARAY023murni kecil25,000
3121/06 13:06AANNAAAmurni besar5,000
3221/06 13:06FIKRIZEINmurni kecil5,000
3321/06 13:06DFARIZALLmurni kecil50,000
3421/06 13:06BLANK33Nbalak20,000
3521/06 13:06M45U7murni kecil50,000
3621/06 13:06JEFFAMENTmurni kecil50,000
3721/06 13:06AG3ELmurni kecil5,000
3821/06 13:06S4ND4L07murni besar25,000
3921/06 13:05PD4DSATRYA79murni kecil50,000
4021/06 13:05SAMBLUGmurni kecil50,000
4121/06 13:05MUSTO91murni kecil50,000
4221/06 13:05EJAK_46murni kecil5,000
4321/06 13:05KASIHHOKYbalak100,000
4421/06 13:05ARB89793murni kecil50,000
4521/06 13:05ACHIL10murni kecil50,000
4621/06 13:05CUM11murni besar50,000
4721/06 13:05VANDHAAAmurni besar50,000
4821/06 13:05PORT001murni besar25,000
4921/06 13:05NUNING1STmurni besar50,000
5021/06 13:05SPONGEDONGmurni besar50,000